Weather History for Andover, NJ

Change the Weather History Date:

Monday, January 21, 2013

  Actual Average (KFWN) Record (KFWN)
Temperature  
Mean Temperature 24 °F -  
Max Temperature 27 °F 33 °F 59 °F (2006)
Min Temperature 21 °F 11 °F -20 °F (1961)
Degree Days  
Heating Degree Days 41    
Moisture  
Dew Point 12 °F    
Average Humidity 59    
Maximum Humidity 78    
Minimum Humidity 43    
Precipitation  
Precipitation 0.06 in - - ()
Sea Level Pressure  
Sea Level Pressure 30.00 in    
Wind  
Wind Speed 2 mph (SSW)    
Max Wind Speed 8 mph    
Max Gust Speed -    
Averages and records for this station are not official NWS values.
T = Trace of Precipitation, MM = Missing Value Source: NWS Daily Summary

Daily Weather History Graph

Daily Weather History Graph

Search for Another Location

Airport:

Trip Planner

Search our weather history database for the weather conditions in past years. The results will help you decide how hot, cold, wet, or windy it might be!

Date:

Astronomy

Jan. 21, 2013 Rise Set
Actual Time 7:18 AM EST 5:02 PM EST
Civil Twilight 6:48 AM EST 5:32 PM EST
Nautical Twilight 6:14 AM EST 6:06 PM EST
Astronomical Twilight 5:42 AM EST 6:38 PM EST
Moon 12:40 PM EST (1/21) 2:44 AM EST (1/21)
Length of Visible Light 10h 44m
Length of Day
9h 44m
Waxing Gibbous, 75% of the Moon is Illuminated
Jan 21
Waxing Gibbous
Jan 26
Full
Feb 3
Last Quarter
Feb 10
New
Feb 17
First Quarter

Hourly Weather History & Observations

Time (EST) Temp. Windchill Dew Point Humidity Pressure Visibility Wind Dir Wind Speed Gust Speed Precip Events Conditions
12:54 AM 25.0 °F 20.7 °F 6.1 °F 45% 30.06 in - Variable 3.5 mph - N/A   Unknown
1:54 AM 25.0 °F - 5.0 °F 43% 30.07 in - Calm Calm - N/A   Unknown
2:54 AM 23.0 °F - 7.0 °F 50% 30.08 in - Calm Calm - N/A   Unknown
3:54 AM 21.9 °F - 8.1 °F 55% 30.08 in - Calm Calm - N/A   Unknown
4:54 AM 23.0 °F - 8.1 °F 53% 30.08 in - Calm Calm - N/A   Unknown
5:54 AM 21.9 °F - 9.0 °F 58% 30.08 in - Calm Calm - N/A   Unknown
6:54 AM 23.0 °F - 9.0 °F 55% 30.08 in - Calm Calm - N/A   Unknown
7:00 AM - - - N/A% - - North - - N/A   Unknown
7:54 AM 23.0 °F - 9.0 °F 55% 30.09 in - Calm Calm - 0.02 in   Unknown
8:54 AM 24.1 °F - 9.0 °F 53% 30.09 in - Calm Calm - N/A   Unknown
9:54 AM 25.0 °F 19.3 °F 9.0 °F 51% 30.09 in - SSW 4.6 mph - N/A   Unknown
10:54 AM 26.1 °F 20.5 °F 8.1 °F 47% 30.06 in - South 4.6 mph - N/A   Unknown
11:54 AM 27.0 °F 21.6 °F 9.0 °F 47% 30.01 in - SW 4.6 mph - 0.02 in   Unknown
12:54 PM 27.0 °F 20.5 °F 9.0 °F 47% 29.97 in - Variable 5.8 mph - N/A   Unknown
1:54 PM 27.0 °F 18.7 °F 12.9 °F 56% 29.96 in - SW 8.1 mph - N/A   Unknown
2:54 PM 26.1 °F 20.5 °F 16.0 °F 66% 29.94 in - South 4.6 mph - N/A   Unknown
3:54 PM 26.1 °F 21.9 °F 17.1 °F 69% 29.92 in - South 3.5 mph - N/A   Unknown
4:54 PM 26.1 °F - 16.0 °F 66% 29.91 in - Calm Calm - N/A   Unknown
5:54 PM 26.1 °F - 16.0 °F 66% 29.91 in - Calm Calm - N/A   Unknown
6:54 PM 26.1 °F - 17.1 °F 69% 29.91 in - Calm Calm - N/A   Unknown
7:54 PM 25.0 °F - 18.0 °F 75% 29.91 in - Calm Calm - N/A   Unknown
8:54 PM 23.0 °F - 17.1 °F 78% 29.88 in - Calm Calm - N/A   Unknown
9:54 PM 23.0 °F 18.4 °F 17.1 °F 78% 29.88 in - SSW 3.5 mph - 0.02 in   Unknown
10:54 PM 23.0 °F 18.4 °F 12.9 °F 65% 29.87 in - Variable 3.5 mph - N/A   Unknown